Wind_Speed
18 18 18 18 19 19 20 21 22 23 24 25 27 28 29 30 32 33 34 35 36 36 37 37 37 37 37 36 36 35 34 34 34 33 33 32 32 32 32 31 30 30 28
21 21 21 21 21 22 22 23 24 25 27 28 29 30 31 32 34 35 36 37 38 38 38 38 38 38 37 37 36 36 35 35 34 33 33 33 33 33 33 33 32 31 31
23 24 24 24 24 25 25 26 27 28 29 30 32 33 34 35 36 37 38 39 39 39 39 39 39 38 38 37 36 36 35 35 34 34 34 34 34 34 34 34 34 33 32
26 26 27 27 27 27 28 29 30 31 32 33 34 35 36 37 38 39 40 40 41 40 40 40 40 39 38 37 37 36 36 35 35 35 35 35 35 35 36 36 35 35 34
29 29 30 30 30 31 31 32 33 34 35 36 37 37 38 39 40 41 42 42 42 42 42 41 40 40 39 38 37 37 37 37 37 37 36 36 36 37 37 38 37 37 36
32 32 33 33 33 34 34 35 36 36 37 38 39 39 40 41 42 42 43 43 43 43 43 42 41 40 40 39 38 38 37 37 38 38 38 37 38 38 39 39 39 39 39
35 35 36 36 36 36 37 38 38 39 39 41 41 41 41 42 42 43 43 44 44 44 43 42 41 41 40 40 39 38 38 38 38 38 38 38 39 40 40 41 42 42 41
38 38 38 39 39 39 39 40 41 41 42 42 43 44 42 42 42 43 44 44 44 44 43 42 42 41 41 40 39 39 39 39 38 39 39 39 39 40 41 42 43 44 44
41 41 41 41 41 41 41 42 43 43 43 44 44 45 45 44 43 42 42 43 43 43 43 42 42 41 40 40 39 39 39 39 39 39 40 40 41 41 41 41 43 44 44
44 44 44 43 43 43 43 44 44 45 45 44 44 45 46 46 46 45 43 42 42 42 42 42 41 41 40 40 39 39 40 40 39 39 39 40 40 41 41 41 41 42 44
45 45 45 45 45 45 45 45 45 45 45 45 46 46 46 46 46 46 44 42 41 41 41 41 41 41 40 40 40 40 40 40 39 39 39 38 38 39 38 38 39 40 41
47 47 47 47 47 47 47 47 47 47 47 47 47 47 46 46 46 45 44 43 42 41 41 41 41 40 40 40 41 40 40 39 38 38 38 38 37 36 35 35 36 36 37
49 49 49 49 49 48 48 48 48 48 47 47 47 46 46 46 45 44 43 42 41 41 41 41 41 40 40 41 40 40 39 38 38 38 37 37 35 34 33 33 34 34 35
50 50 50 50 49 49 48 48 47 47 46 46 46 46 45 45 44 43 42 41 41 40 40 40 39 40 40 39 39 38 38 37 37 37 36 34 34 33 32 32 32 33 33
51 51 50 49 48 48 47 47 46 46 46 45 45 44 44 44 42 42 41 40 39 39 39 39 39 39 39 39 38 37 36 36 36 35 34 32 32 31 30 30 30 30 31
49 48 47 47 46 46 45 45 45 45 44 44 44 43 43 42 41 40 39 39 38 38 38 38 39 39 39 38 37 37 36 35 35 34 32 31 30 29 28 28 29 29 30
48 47 46 46 45 44 44 44 44 44 44 43 43 42 41 40 39 39 38 37 37 37 37 37 37 37 37 36 36 36 35 35 34 33 31 30 29 29 28 28 28 28 29
48 47 46 45 44 44 44 44 44 43 43 42 41 40 39 38 37 37 36 36 36 36 36 36 36 36 36 36 35 35 34 34 33 32 31 30 29 29 28 28 28 29 30
47 46 45 44 44 43 43 43 42 42 41 40 39 38 37 36 36 35 35 35 35 35 35 35 35 35 35 35 35 34 34 33 33 32 32 31 30 29 29 29 29 30 31
46 45 44 44 43 43 42 41 41 40 39 38 37 36 35 35 35 34 34 34 34 34 34 34 35 35 35 35 34 34 33 33 32 32 32 32 32 32 31 31 31 32 32
45 44 43 43 42 42 40 40 39 38 37 37 35 34 34 34 33 33 33 33 33 33 34 34 34 34 34 34 34 34 33 33 33 33 33 33 34 34 34 34 34 34 34
42 42 41 41 40 39 39 39 37 36 35 34 33 33 33 32 32 32 32 32 32 33 33 34 34 34 34 34 34 34 34 34 34 35 35 35 36 36 36 36 36 37 37
40 40 39 38 38 37 37 36 35 34 33 32 32 32 31 31 31 31 31 32 32 33 34 34 34 34 34 34 35 35 35 36 36 36 37 37 37 37 38 39 39 40 41
37 37 36 36 36 35 34 34 33 32 32 31 31 30 30 30 30 31 31 32 33 33 34 34 34 35 35 35 35 36 37 37 38 38 39 39 39 40 40 41 42 42 43
35 35 35 34 33 33 32 32 32 31 31 30 30 29 30 30 31 32 32 32 33 34 34 34 35 35 35 36 37 38 38 39 40 40 40 41 41 42 42 43 43 44 45
33 33 32 32 32 32 32 31 31 30 30 30 29 29 30 31 32 32 33 33 34 35 35 35 36 36 37 38 39 39 40 41 41 41 42 43 43 44 44 45 45 46 46
Wind_Direction
278 282 286 290 293 295 297 299 300 301 302 303 304 305 306 307 308 309 309 309 309 309 309 308 308 308 308 307 307 306 305 304 303 301 299 296 294 292 289 286 283 280 278
277 281 284 287 290 293 294 296 297 298 299 301 302 303 304 305 306 307 308 308 308 308 308 307 307 307 307 306 305 304 304 303 301 299 297 295 293 290 288 286 283 280 277
277 280 283 286 289 291 292 293 294 296 297 299 300 301 302 304 305 305 306 306 307 307 306 306 306 306 305 304 304 303 302 301 299 297 295 292 290 288 286 284 282 279 276
277 279 281 285 287 289 290 292 293 294 296 297 299 300 302 303 304 305 305 306 306 306 305 305 304 304 303 303 302 302 301 300 298 296 294 290 288 286 284 282 280 278 275
276 278 281 283 286 287 289 290 292 293 295 296 298 299 301 302 304 305 305 305 305 305 304 303 303 303 302 301 301 301 300 299 297 295 292 289 286 284 282 280 278 276 274
275 277 280 283 285 286 288 289 290 292 293 295 297 298 300 301 303 304 304 305 304 304 303 302 302 301 301 300 300 299 299 298 297 295 292 289 286 284 281 277 275 274 272
275 277 279 281 283 285 286 288 289 291 293 295 296 297 299 300 302 302 303 303 302 301 301 300 300 300 300 300 299 299 298 298 298 296 293 290 287 284 280 277 274 270 269
274 276 278 280 282 283 285 286 288 290 292 294 295 296 297 298 300 301 302 301 300 299 299 299 298 298 298 298 298 298 298 297 297 296 295 292 289 287 282 276 273 270 267
273 275 277 279 280 281 283 285 287 289 291 292 294 296 297 298 298 299 298 298 297 297 296 297 297 297 297 297 297 297 297 297 297 296 295 293 291 288 284 278 275 271 267
272 274 276 277 278 280 282 284 286 288 289 291 293 295 296 297 298 298 297 296 295 295 295 296 296 297 296 296 297 297 297 297 296 296 295 294 292 288 285 281 277 272 268
270 272 274 276 277 279 281 283 285 287 288 290 292 294 295 296 297 298 298 296 295 294 294 295 296 296 296 296 297 297 297 297 296 296 295 294 292 289 286 282 277 273 268
269 271 273 275 277 278 280 282 284 285 287 290 292 293 294 295 296 296 296 296 295 294 293 294 295 295 295 296 298 298 298 297 297 297 297 295 292 289 285 282 280 275 269
269 270 272 274 276 278 280 281 283 285 287 289 291 292 293 294 295 295 294 294 294 293 293 294 295 295 296 297 298 298 298 297 297 297 297 295 293 289 284 282 279 274 270
269 270 273 274 276 278 279 281 283 284 286 288 290 291 292 293 293 293 293 293 293 293 293 294 294 295 297 298 298 298 298 297 298 298 297 295 293 290 285 282 279 276 271
270 271 273 275 276 277 279 280 282 284 286 288 289 290 290 291 291 291 292 292 292 293 293 294 295 296 297 297 298 297 298 298 299 299 298 296 295 291 288 284 280 275 270
270 271 273 274 276 278 279 280 282 284 285 286 287 288 289 289 289 290 291 292 292 293 293 294 296 297 297 297 297 297 297 298 299 298 297 296 295 292 289 286 280 275 270
270 271 273 274 276 277 278 280 282 283 285 286 286 287 287 288 288 289 290 291 293 294 295 296 297 297 298 298 297 297 297 297 298 297 296 295 294 292 289 286 280 276 271
269 271 272 274 275 277 278 280 282 283 284 284 285 285 286 287 288 289 290 292 293 295 296 297 297 298 298 298 298 297 297 297 296 296 295 295 294 293 291 289 284 278 273
269 271 272 273 275 277 279 280 281 282 282 283 283 284 285 286 287 289 290 292 294 295 297 297 298 299 299 298 298 297 297 297 296 295 294 294 293 292 291 289 285 281 276
269 270 272 274 275 277 278 279 280 280 281 281 282 282 283 285 287 289 291 293 294 296 297 298 299 299 299 299 298 298 297 297 296 295 294 294 293 291 290 288 284 281 278
268 270 272 273 274 275 276 277 278 278 279 279 279 280 282 285 287 289 291 293 295 297 298 299 299 299 299 299 298 298 297 297 296 296 295 294 292 290 288 287 285 282 280
268 269 270 271 272 273 274 275 276 276 276 277 278 280 282 284 287 290 291 293 296 297 298 299 299 299 299 298 298 298 298 297 296 295 294 293 292 290 288 286 284 282 281
267 268 269 270 271 271 272 273 273 273 275 277 278 280 282 284 287 290 292 294 296 298 299 300 300 300 299 299 299 298 298 298 297 296 295 294 292 290 288 286 285 284 282
266 267 268 268 269 270 270 270 271 272 275 277 279 280 282 285 288 290 292 295 296 298 299 300 299 299 299 299 299 299 298 298 297 297 296 295 293 291 289 287 286 285 284
265 265 266 267 268 268 269 269 270 272 274 276 278 280 282 286 288 291 293 295 297 298 299 299 299 299 299 299 299 299 299 298 297 297 296 295 294 293 291 289 287 285 284
264 265 265 266 266 267 269 269 270 272 273 275 277 280 284 287 289 291 293 295 297 298 299 299 299 299 300 300 300 299 299 299 298 297 297 296 295 293 292 290 288 287 286
Height
5877 5877 5876 5876 5875 5874 5872 5871 5869 5868 5866 5864 5862 5859 5857 5854 5851 5848 5846 5843 5839 5836 5833 5830 5827 5824 5821 5818 5815 5813 5810 5808 5805 5803 5801 5799 5797 5796 5794 5794 5793 5793 5793
5873 5873 5872 5871 5871 5869 5868 5867 5865 5863 5861 5859 5857 5855 5852 5849 5846 5843 5840 5837 5834 5830 5827 5824 5821 5818 5815 5812 5809 5806 5803 5801 5798 5796 5794 5792 5790 5789 5788 5787 5786 5786 5786
5869 5868 5868 5867 5866 5865 5863 5862 5860 5858 5856 5854 5852 5849 5847 5844 5841 5837 5834 5830 5827 5824 5820 5817 5814 5811 5808 5805 5802 5799 5796 5793 5791 5789 5787 5785 5783 5781 5780 5779 5779 5779 5779
5863 5863 5862 5861 5861 5859 5858 5856 5855 5853 5850 5848 5846 5843 5840 5837 5834 5831 5827 5823 5820 5817 5813 5810 5807 5804 5801 5797 5794 5791 5788 5786 5783 5781 5779 5777 5775 5774 5772 5771 5771 5771 5771
5858 5857 5856 5856 5855 5854 5852 5851 5849 5847 5844 5842 5839 5836 5833 5830 5827 5823 5819 5816 5812 5809 5805 5802 5799 5796 5793 5790 5787 5784 5781 5777 5775 5772 5770 5768 5766 5765 5764 5763 5762 5762 5762
5851 5851 5850 5849 5848 5847 5846 5844 5842 5840 5838 5835 5832 5830 5826 5823 5819 5815 5812 5808 5804 5801 5797 5794 5790 5787 5784 5781 5779 5776 5772 5769 5766 5763 5761 5758 5757 5756 5754 5753 5753 5753 5753
5844 5844 5844 5842 5841 5840 5839 5837 5835 5833 5830 5827 5825 5822 5820 5816 5812 5807 5804 5800 5796 5792 5789 5785 5782 5779 5776 5773 5770 5767 5764 5761 5757 5754 5751 5749 5747 5745 5744 5743 5742 5742 5743
5837 5837 5836 5835 5834 5833 5831 5829 5827 5825 5823 5820 5817 5814 5812 5810 5805 5800 5795 5791 5787 5783 5780 5776 5773 5770 5767 5764 5761 5758 5755 5752 5748 5745 5741 5739 5736 5734 5733 5732 5731 5731 5732
5829 5829 5828 5827 5826 5825 5823 5821 5819 5817 5815 5812 5808 5805 5802 5800 5797 5794 5789 5783 5778 5774 5771 5768 5764 5761 5758 5755 5752 5749 5745 5742 5739 5735 5732 5729 5726 5723 5721 5720 5719 5719 5720
5821 5820 5819 5819 5818 5816 5815 5813 5811 5808 5806 5803 5800 5797 5793 5790 5787 5785 5781 5776 5771 5766 5762 5758 5755 5752 5749 5746 5742 5739 5736 5732 5729 5726 5722 5718 5715 5712 5709 5708 5707 5706 5707
5811 5811 5810 5810 5809 5807 5806 5804 5802 5799 5797 5794 5791 5788 5785 5781 5777 5774 5771 5767 5763 5758 5753 5749 5746 5743 5739 5736 5733 5730 5726 5722 5719 5716 5712 5708 5704 5701 5698 5696 5694 5694 5695
5802 5801 5801 5800 5799 5797 5796 5794 5792 5790 5787 5785 5781 5778 5775 5772 5768 5764 5761 5757 5753 5749 5745 5741 5737 5733 5730 5727 5724 5720 5716 5713 5709 5706 5702 5698 5694 5691 5688 5686 5684 5683 5684
5792 5791 5790 5790 5789 5787 5786 5784 5782 5780 5777 5775 5772 5769 5765 5762 5758 5754 5751 5747 5744 5740 5736 5732 5728 5724 5721 5717 5714 5710 5707 5703 5700 5696 5692 5688 5684 5681 5679 5677 5675 5674 5674
5781 5780 5780 5779 5778 5777 5775 5773 5772 5769 5767 5764 5762 5758 5755 5752 5748 5745 5741 5738 5734 5731 5727 5723 5719 5715 5711 5708 5705 5701 5698 5694 5691 5687 5683 5679 5675 5672 5670 5668 5666 5665 5665
5770 5769 5769 5768 5767 5766 5765 5763 5761 5759 5757 5754 5751 5748 5745 5742 5738 5735 5732 5728 5725 5722 5718 5714 5710 5706 5703 5699 5695 5692 5689 5685 5682 5678 5674 5671 5667 5664 5661 5659 5658 5657 5657
5759 5758 5758 5757 5756 5755 5754 5752 5750 5748 5746 5743 5741 5738 5735 5732 5729 5725 5722 5719 5715 5712 5709 5705 5701 5697 5694 5690 5687 5683 5680 5676 5673 5669 5666 5662 5659 5656 5653 5652 5650 5649 5648
5748 5747 5747 5746 5745 5744 5743 5741 5740 5737 5735 5733 5730 5728 5725 5722 5719 5716 5713 5709 5706 5703 5700 5696 5692 5689 5685 5682 5678 5675 5671 5668 5664 5661 5658 5655 5652 5649 5646 5644 5642 5641 5640
5736 5736 5736 5735 5734 5733 5732 5730 5729 5727 5724 5722 5720 5717 5715 5712 5710 5707 5704 5700 5697 5694 5691 5687 5684 5680 5676 5673 5670 5666 5663 5659 5656 5653 5650 5647 5644 5641 5639 5637 5635 5634 5633
5725 5725 5725 5724 5723 5722 5721 5719 5718 5716 5714 5712 5710 5707 5705 5703 5700 5697 5694 5691 5688 5685 5682 5679 5675 5671 5668 5664 5661 5657 5654 5651 5647 5644 5642 5639 5636 5634 5631 5629 5628 5626 5625
5714 5713 5713 5713 5712 5711 5710 5708 5707 5705 5704 5702 5700 5698 5696 5694 5691 5689 5686 5683 5680 5676 5673 5670 5667 5663 5659 5656 5652 5649 5646 5642 5639 5636 5633 5630 5628 5625 5623 5621 5619 5618 5616
5702 5702 5702 5702 5701 5700 5699 5698 5697 5695 5694 5692 5690 5689 5687 5685 5682 5680 5677 5674 5671 5668 5665 5661 5658 5654 5651 5647 5644 5640 5637 5634 5630 5627 5624 5622 5619 5616 5614 5612 5610 5608 5606
5691 5691 5691 5690 5690 5689 5688 5687 5686 5685 5684 5683 5681 5680 5678 5676 5674 5671 5668 5665 5662 5659 5656 5652 5649 5645 5642 5638 5635 5631 5628 5625 5622 5619 5615 5612 5609 5606 5604 5601 5599 5597 5596
5680 5680 5680 5680 5679 5679 5678 5677 5677 5676 5675 5674 5672 5671 5669 5667 5665 5662 5660 5657 5654 5650 5647 5644 5640 5636 5633 5629 5626 5622 5618 5615 5612 5608 5605 5601 5599 5596 5593 5590 5587 5585 5583
5670 5670 5670 5670 5669 5669 5669 5668 5668 5667 5666 5665 5664 5662 5660 5658 5656 5654 5651 5648 5645 5642 5638 5635 5631 5627 5623 5620 5616 5613 5609 5605 5601 5598 5594 5591 5587 5584 5581 5577 5574 5572 5569
5660 5660 5660 5660 5660 5660 5660 5659 5659 5658 5657 5656 5655 5654 5652 5650 5648 5645 5643 5640 5636 5633 5629 5625 5622 5618 5614 5610 5606 5602 5598 5594 5591 5587 5582 5579 5575 5571 5567 5564 5561 5558 5555
5651 5651 5651 5651 5651 5651 5651 5650 5650 5649 5649 5648 5646 5645 5643 5641 5639 5636 5633 5630 5627 5623 5620 5616 5612 5608 5604 5600 5596 5592 5587 5583 5579 5575 5570 5566 5562 5558 5554 5550 5546 5543 5539